Погода в Туггурте

Алжир     33°06′39″N   6°04′46″E
темп.,
°C
ветер,
м/с
пор.,
м/с
влажн.,
%
обл.,
%
осадки,
мм/ч
давл.,
гПа
погр.,
м
22 апреля, чт
чт2201:00+26юз331999 0.0 100633
04:00+22с342542 0.0 100635
07:00+22с3328100 0.0 100756
10:00+27ссв762198 0.0 1008612
13:00+31ссв761611 0.0 10081250
16:00+32ссв9716100 0.0 10081792
19:00+28ссв71119100 0.0 1009266
22:00+25с101624100 0.0 1010569
23 апреля, пт
пт2301:00+23с101731100 0.0 1011604
04:00+22с10163220 0.0 1011468
07:00+21ссв7124666 0.0 1013462
10:00+25св8831100 0.0 10141055
13:00+29ссв4523100 0.0 10131847
16:00+30ссз442163 0.0 10112171
19:00+27ссз332236 0.0 101217
22:00+24ссв44245 0.0 101444
24 апреля, сб
сб2401:00+21вюв7113811 0.0 1014205
04:00+19вюв6125227 0.0 1014269
07:00+18вюв611560 0.0 1017438
10:00+23вюв77410 0.0 1018978
13:00+27вюв65295 0.0 10171535
16:00+29в65245 0.0 10141681
19:00+26в69295 0.0 1015241
22:00+23в7123420 0.0 1017238
25 апреля, вс
вс2501:00+21вюв6113925 0.0 1016202
04:00+18вюв71247100 0.0 1016271
07:00+17вюв5125350 0.0 1017399
10:00+23вюв783096 0.0 1018773
13:00+29вюв8818100 0.0 10151225
16:00+31вюв8914100 0.0 10121457
19:00+29вюв5615100 0.0 101155
22:00+25в61120100 0.0 1012149
26 апреля, пн
пн2601:00+24вюв91619100 0.0 1010262
04:00+22в6819100 0.0 100994
07:00+21всв692474 0.0 1009141
10:00+30ююв5913100 0.0 1009710
13:00+39ююз81010100 0.0 10051917
16:00+41зюз8147100 0.0 10025349
19:00+36з6108100 0.0 1002116
22:00+31зюз3412100 0.0 100316